contact:dominique.lefevre@mio.osupytheas.fr, maurice.libes@osupytheas.fr, didier.mallarino@osupytheas.fr
Project:EMSO http://www.emso-fr.org/EMSO-France
Depth: 2436.0 m
Title:EMSO Ligure Ouest : Data MII capteur MICROCAT
DateTime_Computer,Latitude,Longitude,Temperature,Conductivity,Pressure,DateTime_Instrument
DateTime_Computer,Latitude,Longitude,degC,S m-1,dbar,DateTime_Instrument
2021-10-11T00:00:34Z,42.805,6.029,13.3021,4.60022,2470.437,2021-10-11T02:01:57Z
2021-10-11T00:03:37Z,42.805,6.029,13.3010,4.60027,2470.45,2021-10-11T02:05:00Z
2021-10-11T00:06:40Z,42.805,6.029,13.3031,4.60052,2470.46,2021-10-11T02:08:03Z
2021-10-11T00:09:43Z,42.805,6.029,13.3027,4.60038,2470.413,2021-10-11T02:11:06Z
2021-10-11T00:12:46Z,42.805,6.029,13.3027,4.60023,2470.45,2021-10-11T02:14:10Z
2021-10-11T00:15:50Z,42.805,6.029,13.3019,4.60034,2470.437,2021-10-11T02:17:13Z
2021-10-11T00:18:53Z,42.805,6.029,13.3021,4.60042,2470.437,2021-10-11T02:20:16Z
2021-10-11T00:21:56Z,42.805,6.029,13.3022,4.60031,2470.413,2021-10-11T02:23:19Z
2021-10-11T00:24:59Z,42.805,6.029,13.3026,4.60044,2470.427,2021-10-11T02:26:22Z
2021-10-11T00:28:02Z,42.805,6.029,13.3026,4.60043,2470.413,2021-10-11T02:29:25Z
2021-10-11T00:31:05Z,42.805,6.029,13.3024,4.60037,2470.437,2021-10-11T02:32:28Z
2021-10-11T00:34:08Z,42.805,6.029,13.3030,4.60039,2470.427,2021-10-11T02:35:31Z
2021-10-11T00:37:11Z,42.805,6.029,13.3026,4.60042,2470.404,2021-10-11T02:38:34Z
2021-10-11T00:40:15Z,42.805,6.029,13.3021,4.60039,2470.404,2021-10-11T02:41:38Z
2021-10-11T00:43:18Z,42.805,6.029,13.3012,4.60025,2470.39,2021-10-11T02:44:41Z
2021-10-11T00:46:21Z,42.805,6.029,13.3024,4.60039,2470.413,2021-10-11T02:47:44Z
2021-10-11T00:49:24Z,42.805,6.029,13.3024,4.60039,2470.437,2021-10-11T02:50:47Z
2021-10-11T00:52:27Z,42.805,6.029,13.3031,4.60042,2470.38,2021-10-11T02:53:50Z
2021-10-11T00:55:30Z,42.805,6.029,13.3022,4.60033,2470.437,2021-10-11T02:56:53Z
2021-10-11T00:58:33Z,42.805,6.029,13.3033,4.60043,2470.427,2021-10-11T02:59:56Z
2021-10-11T01:01:36Z,42.805,6.029,13.3021,4.60037,2470.38,2021-10-11T03:02:59Z
2021-10-11T01:04:40Z,42.805,6.029,13.3029,4.60033,2470.38,2021-10-11T03:06:03Z
2021-10-11T01:07:43Z,42.805,6.029,13.3021,4.60032,2470.427,2021-10-11T03:09:06Z
2021-10-11T01:10:46Z,42.805,6.029,13.3015,4.60026,2470.427,2021-10-11T03:12:09Z
2021-10-11T01:13:49Z,42.805,6.029,13.3033,4.60033,2470.413,2021-10-11T03:15:12Z
2021-10-11T01:16:52Z,42.805,6.029,13.3029,4.60035,2470.427,2021-10-11T03:18:15Z
2021-10-11T01:19:55Z,42.805,6.029,13.3034,4.60033,2470.38,2021-10-11T03:21:18Z
2021-10-11T01:22:58Z,42.805,6.029,13.3015,4.60034,2470.413,2021-10-11T03:24:21Z
2021-10-11T01:26:01Z,42.805,6.029,13.3029,4.60033,2470.38,2021-10-11T03:27:24Z
2021-10-11T01:29:04Z,42.805,6.029,13.3027,4.60033,2470.413,2021-10-11T03:30:28Z
2021-10-11T01:32:08Z,42.805,6.029,13.3025,4.60039,2470.39,2021-10-11T03:33:31Z
2021-10-11T01:35:11Z,42.805,6.029,13.3023,4.60039,2470.366,2021-10-11T03:36:34Z
2021-10-11T01:38:14Z,42.805,6.029,13.3021,4.60049,2470.404,2021-10-11T03:39:37Z
2021-10-11T01:41:17Z,42.805,6.029,13.3005,4.60041,2470.39,2021-10-11T03:42:40Z
2021-10-11T01:44:20Z,42.805,6.029,13.3015,4.60031,2470.39,2021-10-11T03:45:43Z
2021-10-11T01:47:23Z,42.805,6.029,13.3011,4.60046,2470.404,2021-10-11T03:48:46Z
2021-10-11T01:50:26Z,42.805,6.029,13.3016,4.60054,2470.39,2021-10-11T03:51:49Z
2021-10-11T01:53:29Z,42.805,6.029,13.3024,4.60021,2470.39,2021-10-11T03:54:53Z
2021-10-11T01:56:33Z,42.805,6.029,13.3021,4.60036,2470.413,2021-10-11T03:57:56Z
2021-10-11T01:59:36Z,42.805,6.029,13.3002,4.60029,2470.357,2021-10-11T04:00:59Z
2021-10-11T02:02:39Z,42.805,6.029,13.3011,4.60031,2470.366,2021-10-11T04:04:02Z
2021-10-11T02:05:42Z,42.805,6.029,13.3019,4.60041,2470.39,2021-10-11T04:07:05Z
2021-10-11T02:08:45Z,42.805,6.029,13.3012,4.60034,2470.39,2021-10-11T04:10:08Z
2021-10-11T02:11:48Z,42.805,6.029,13.3003,4.60034,2470.366,2021-10-11T04:13:11Z
2021-10-11T02:14:51Z,42.805,6.029,13.3015,4.60037,2470.366,2021-10-11T04:16:14Z
2021-10-11T02:17:54Z,42.805,6.029,13.3009,4.60032,2470.366,2021-10-11T04:19:18Z
2021-10-11T02:20:58Z,42.805,6.029,13.3008,4.60055,2470.366,2021-10-11T04:22:21Z
2021-10-11T02:24:01Z,42.805,6.029,13.3016,4.60039,2470.427,2021-10-11T04:25:24Z
2021-10-11T02:27:04Z,42.805,6.029,13.3022,4.60042,2470.39,2021-10-11T04:28:27Z
2021-10-11T02:30:07Z,42.805,6.029,13.3024,4.60045,2470.38,2021-10-11T04:31:30Z
2021-10-11T02:33:10Z,42.805,6.029,13.3017,4.60023,2470.404,2021-10-11T04:34:33Z
2021-10-11T02:36:13Z,42.805,6.029,13.3010,4.60033,2470.404,2021-10-11T04:37:36Z
2021-10-11T02:39:16Z,42.805,6.029,13.3029,4.60039,2470.39,2021-10-11T04:40:39Z
2021-10-11T02:42:19Z,42.805,6.029,13.3020,4.60035,2470.39,2021-10-11T04:43:43Z
2021-10-11T02:45:23Z,42.805,6.029,13.3014,4.60018,2470.366,2021-10-11T04:46:46Z
2021-10-11T02:48:26Z,42.805,6.029,13.3000,4.60040,2470.343,2021-10-11T04:49:49Z
2021-10-11T02:51:29Z,42.805,6.029,13.3004,4.60047,2470.366,2021-10-11T04:52:52Z
2021-10-11T02:54:32Z,42.805,6.029,13.3014,4.60027,2470.38,2021-10-11T04:55:55Z
2021-10-11T02:57:35Z,42.805,6.029,13.3015,4.60026,2470.38,2021-10-11T04:58:58Z
2021-10-11T03:00:38Z,42.805,6.029,13.3009,4.60038,2470.343,2021-10-11T05:02:01Z
2021-10-11T03:03:41Z,42.805,6.029,13.3007,4.60046,2470.366,2021-10-11T05:05:04Z
2021-10-11T03:06:44Z,42.805,6.029,13.3005,4.60042,2470.366,2021-10-11T05:08:08Z
2021-10-11T03:09:47Z,42.805,6.029,13.3015,4.60042,2470.38,2021-10-11T05:11:11Z
2021-10-11T03:12:51Z,42.805,6.029,13.3010,4.60049,2470.38,2021-10-11T05:14:14Z
2021-10-11T03:15:54Z,42.805,6.029,13.3022,4.60034,2470.366,2021-10-11T05:17:17Z
2021-10-11T03:18:57Z,42.805,6.029,13.3007,4.60025,2470.357,2021-10-11T05:20:20Z
2021-10-11T03:22:00Z,42.805,6.029,13.3009,4.60026,2470.366,2021-10-11T05:23:23Z
2021-10-11T03:25:03Z,42.805,6.029,13.3027,4.60067,2470.357,2021-10-11T05:26:26Z
2021-10-11T03:28:06Z,42.805,6.029,13.3026,4.60023,2470.366,2021-10-11T05:29:29Z
2021-10-11T03:31:09Z,42.805,6.029,13.3016,4.60026,2470.343,2021-10-11T05:32:32Z
2021-10-11T03:34:12Z,42.805,6.029,13.3010,4.60041,2470.38,2021-10-11T05:35:36Z
2021-10-11T03:37:16Z,42.805,6.029,13.3011,4.60045,2470.357,2021-10-11T05:38:39Z
2021-10-11T03:40:19Z,42.805,6.029,13.3020,4.60041,2470.366,2021-10-11T05:41:42Z
2021-10-11T03:43:22Z,42.805,6.029,13.3021,4.60039,2470.357,2021-10-11T05:44:45Z
2021-10-11T03:46:25Z,42.805,6.029,13.3021,4.60036,2470.357,2021-10-11T05:47:48Z
2021-10-11T03:49:28Z,42.805,6.029,13.3013,4.60035,2470.343,2021-10-11T05:50:51Z
2021-10-11T03:52:31Z,42.805,6.029,13.3014,4.60031,2470.38,2021-10-11T05:53:54Z
2021-10-11T03:55:34Z,42.805,6.029,13.3006,4.60026,2470.357,2021-10-11T05:56:58Z
2021-10-11T03:58:37Z,42.805,6.029,13.3011,4.60049,2470.343,2021-10-11T06:00:01Z
2021-10-11T04:01:41Z,42.805,6.029,13.3015,4.60035,2470.343,2021-10-11T06:03:04Z
2021-10-11T04:04:44Z,42.805,6.029,13.3007,4.60054,2470.357,2021-10-11T06:06:07Z
2021-10-11T04:07:47Z,42.805,6.029,13.3011,4.60039,2470.343,2021-10-11T06:09:10Z
2021-10-11T04:10:50Z,42.805,6.029,13.3014,4.60035,2470.297,2021-10-11T06:12:13Z
2021-10-11T04:13:53Z,42.805,6.029,13.3014,4.60024,2470.366,2021-10-11T06:15:16Z
2021-10-11T04:16:56Z,42.805,6.029,13.3014,4.60042,2470.334,2021-10-11T06:18:19Z
2021-10-11T04:19:59Z,42.805,6.029,13.3004,4.60064,2470.32,2021-10-11T06:21:22Z
2021-10-11T04:23:02Z,42.805,6.029,13.3014,4.60048,2470.31,2021-10-11T06:24:26Z
2021-10-11T04:26:06Z,42.805,6.029,13.3019,4.60028,2470.366,2021-10-11T06:27:29Z
2021-10-11T04:29:09Z,42.805,6.029,13.3011,4.60022,2470.32,2021-10-11T06:30:32Z
2021-10-11T04:32:12Z,42.805,6.029,13.3010,4.60032,2470.343,2021-10-11T06:33:35Z
2021-10-11T04:35:15Z,42.805,6.029,13.3014,4.60026,2470.32,2021-10-11T06:36:38Z
2021-10-11T04:38:18Z,42.805,6.029,13.3009,4.60032,2470.32,2021-10-11T06:39:41Z
2021-10-11T04:41:21Z,42.805,6.029,13.3012,4.60031,2470.366,2021-10-11T06:42:44Z
2021-10-11T04:44:24Z,42.805,6.029,13.3006,4.60029,2470.357,2021-10-11T06:45:48Z
2021-10-11T04:47:27Z,42.805,6.029,13.3009,4.60031,2470.32,2021-10-11T06:48:51Z
2021-10-11T04:50:31Z,42.805,6.029,13.3004,4.60044,2470.366,2021-10-11T06:51:54Z
2021-10-11T04:53:34Z,42.805,6.029,13.3001,4.60026,2470.297,2021-10-11T06:54:57Z
2021-10-11T04:56:37Z,42.805,6.029,13.3004,4.60029,2470.32,2021-10-11T06:58:00Z
2021-10-11T04:59:40Z,42.805,6.029,13.3008,4.60021,2470.343,2021-10-11T07:01:03Z
2021-10-11T05:02:43Z,42.805,6.029,13.2999,4.60029,2470.32,2021-10-11T07:04:06Z
2021-10-11T05:05:46Z,42.805,6.029,13.3000,4.60031,2470.32,2021-10-11T07:07:09Z
2021-10-11T05:08:49Z,42.805,6.029,13.3005,4.60027,2470.334,2021-10-11T07:10:12Z
2021-10-11T05:11:52Z,42.805,6.029,13.3010,4.60022,2470.334,2021-10-11T07:13:16Z
2021-10-11T05:14:56Z,42.805,6.029,13.3005,4.60037,2470.357,2021-10-11T07:16:19Z
2021-10-11T05:17:59Z,42.805,6.029,13.3001,4.60021,2470.343,2021-10-11T07:19:22Z
2021-10-11T05:21:02Z,42.805,6.029,13.3011,4.60023,2470.32,2021-10-11T07:22:25Z
2021-10-11T05:24:05Z,42.805,6.029,13.3010,4.60040,2470.334,2021-10-11T07:25:28Z
2021-10-11T05:27:08Z,42.805,6.029,13.3010,4.60037,2470.334,2021-10-11T07:28:31Z
2021-10-11T05:30:11Z,42.805,6.029,13.3007,4.60045,2470.38,2021-10-11T07:31:34Z
2021-10-11T05:33:14Z,42.805,6.029,13.3009,4.60033,2470.334,2021-10-11T07:34:37Z
2021-10-11T05:36:17Z,42.805,6.029,13.3012,4.60032,2470.343,2021-10-11T07:37:41Z
2021-10-11T05:39:21Z,42.805,6.029,13.3000,4.60023,2470.343,2021-10-11T07:40:44Z
2021-10-11T05:42:24Z,42.805,6.029,13.3006,4.60013,2470.32,2021-10-11T07:43:47Z
2021-10-11T05:45:27Z,42.805,6.029,13.3009,4.60024,2470.343,2021-10-11T07:46:50Z
2021-10-11T05:48:30Z,42.805,6.029,13.3008,4.60028,2470.366,2021-10-11T07:49:53Z
2021-10-11T05:51:33Z,42.805,6.029,13.3002,4.60021,2470.343,2021-10-11T07:52:56Z
2021-10-11T05:54:36Z,42.805,6.029,13.3003,4.60034,2470.357,2021-10-11T07:55:59Z
2021-10-11T05:57:39Z,42.805,6.029,13.2998,4.60031,2470.343,2021-10-11T07:59:02Z
2021-10-11T06:00:42Z,42.805,6.029,13.3006,4.60026,2470.357,2021-10-11T08:02:06Z
2021-10-11T06:03:46Z,42.805,6.029,13.3007,4.60029,2470.343,2021-10-11T08:05:09Z
2021-10-11T06:06:49Z,42.805,6.029,13.2998,4.60016,2470.334,2021-10-11T08:08:12Z
2021-10-11T06:09:52Z,42.805,6.029,13.3003,4.60019,2470.343,2021-10-11T08:11:15Z
2021-10-11T06:12:55Z,42.805,6.029,13.3006,4.60033,2470.38,2021-10-11T08:14:18Z
2021-10-11T06:15:58Z,42.805,6.029,13.2999,4.60026,2470.343,2021-10-11T08:17:21Z
2021-10-11T06:19:01Z,42.805,6.029,13.3004,4.60029,2470.38,2021-10-11T08:20:24Z
2021-10-11T06:22:04Z,42.805,6.029,13.3006,4.60024,2470.357,2021-10-11T08:23:27Z
2021-10-11T06:25:07Z,42.805,6.029,13.3002,4.60029,2470.343,2021-10-11T08:26:31Z
2021-10-11T06:28:11Z,42.805,6.029,13.2999,4.60024,2470.343,2021-10-11T08:29:34Z
2021-10-11T06:31:14Z,42.805,6.029,13.3005,4.60029,2470.404,2021-10-11T08:32:37Z
2021-10-11T06:34:17Z,42.805,6.029,13.3009,4.60017,2470.366,2021-10-11T08:35:40Z
2021-10-11T06:37:20Z,42.805,6.029,13.3004,4.60022,2470.39,2021-10-11T08:38:43Z
2021-10-11T06:40:23Z,42.805,6.029,13.3008,4.60019,2470.39,2021-10-11T08:41:46Z
2021-10-11T06:43:26Z,42.805,6.029,13.3009,4.60022,2470.38,2021-10-11T08:44:49Z
2021-10-11T06:46:29Z,42.805,6.029,13.3004,4.60021,2470.39,2021-10-11T08:47:52Z
2021-10-11T06:49:32Z,42.805,6.029,13.3012,4.60029,2470.413,2021-10-11T08:50:56Z
2021-10-11T06:52:36Z,42.805,6.029,13.3005,4.60022,2470.404,2021-10-11T08:53:59Z
2021-10-11T06:55:39Z,42.805,6.029,13.3010,4.60021,2470.39,2021-10-11T08:57:02Z
2021-10-11T06:58:42Z,42.805,6.029,13.3010,4.60029,2470.39,2021-10-11T09:00:05Z
2021-10-11T07:01:45Z,42.805,6.029,13.2998,4.60028,2470.427,2021-10-11T09:03:08Z
2021-10-11T07:04:48Z,42.805,6.029,13.3014,4.60021,2470.427,2021-10-11T09:06:11Z
2021-10-11T07:07:51Z,42.805,6.029,13.3004,4.60020,2470.413,2021-10-11T09:09:14Z
2021-10-11T07:10:54Z,42.805,6.029,13.3007,4.60024,2470.366,2021-10-11T09:12:17Z
2021-10-11T07:13:57Z,42.805,6.029,13.3015,4.60021,2470.474,2021-10-11T09:15:21Z
2021-10-11T07:17:01Z,42.805,6.029,13.3012,4.60019,2470.413,2021-10-11T09:18:24Z
2021-10-11T07:20:04Z,42.805,6.029,13.3006,4.60031,2470.399,2021-10-11T09:21:27Z
2021-10-11T07:23:07Z,42.805,6.029,13.3015,4.60025,2470.404,2021-10-11T09:24:30Z
2021-10-11T07:26:10Z,42.805,6.029,13.3011,4.60028,2470.437,2021-10-11T09:27:33Z
2021-10-11T07:29:13Z,42.805,6.029,13.3011,4.60024,2470.413,2021-10-11T09:30:36Z
2021-10-11T07:32:16Z,42.805,6.029,13.3004,4.60023,2470.427,2021-10-11T09:33:39Z
2021-10-11T07:35:19Z,42.805,6.029,13.3007,4.60024,2470.45,2021-10-11T09:36:42Z
2021-10-11T07:38:22Z,42.805,6.029,13.3010,4.60023,2470.474,2021-10-11T09:39:45Z
2021-10-11T07:41:25Z,42.805,6.029,13.3015,4.60021,2470.474,2021-10-11T09:42:49Z
2021-10-11T07:44:29Z,42.805,6.029,13.3010,4.60025,2470.45,2021-10-11T09:45:52Z
2021-10-11T07:47:32Z,42.805,6.029,13.3014,4.60027,2470.474,2021-10-11T09:48:55Z
2021-10-11T07:50:35Z,42.805,6.029,13.3015,4.60031,2470.497,2021-10-11T09:51:58Z
2021-10-11T07:53:38Z,42.805,6.029,13.3015,4.60029,2470.46,2021-10-11T09:55:01Z
2021-10-11T07:56:41Z,42.805,6.029,13.3015,4.60029,2470.474,2021-10-11T09:58:04Z
2021-10-11T07:59:44Z,42.805,6.029,13.3011,4.60026,2470.46,2021-10-11T10:01:07Z
2021-10-11T08:02:47Z,42.805,6.029,13.3007,4.60023,2470.437,2021-10-11T10:04:10Z
2021-10-11T08:05:50Z,42.805,6.029,13.3011,4.60025,2470.483,2021-10-11T10:07:14Z
2021-10-11T08:08:54Z,42.805,6.029,13.3006,4.60023,2470.474,2021-10-11T10:10:17Z
2021-10-11T08:11:57Z,42.805,6.029,13.3009,4.60020,2470.483,2021-10-11T10:13:20Z
2021-10-11T08:15:00Z,42.805,6.029,13.3006,4.60017,2470.46,2021-10-11T10:16:23Z
2021-10-11T08:18:03Z,42.805,6.029,13.3006,4.60021,2470.46,2021-10-11T10:19:26Z
2021-10-11T08:21:06Z,42.805,6.029,13.3012,4.60019,2470.46,2021-10-11T10:22:29Z
2021-10-11T08:24:09Z,42.805,6.029,13.3011,4.60021,2470.52,2021-10-11T10:25:32Z
2021-10-11T08:27:12Z,42.805,6.029,13.3009,4.60027,2470.507,2021-10-11T10:28:36Z
2021-10-11T08:30:16Z,42.805,6.029,13.3007,4.60025,2470.544,2021-10-11T10:31:39Z
2021-10-11T08:33:19Z,42.805,6.029,13.3007,4.60021,2470.507,2021-10-11T10:34:42Z
2021-10-11T08:36:22Z,42.805,6.029,13.3009,4.60024,2470.53,2021-10-11T10:37:45Z
2021-10-11T08:39:25Z,42.805,6.029,13.3011,4.60031,2470.507,2021-10-11T10:40:48Z
2021-10-11T08:42:28Z,42.805,6.029,13.3009,4.60025,2470.52,2021-10-11T10:43:51Z
2021-10-11T08:45:31Z,42.805,6.029,13.3013,4.60027,2470.497,2021-10-11T10:46:54Z
2021-10-11T08:48:34Z,42.805,6.029,13.3009,4.60026,2470.497,2021-10-11T10:49:57Z
2021-10-11T08:51:37Z,42.805,6.029,13.3013,4.60028,2470.53,2021-10-11T10:53:01Z
2021-10-11T08:54:41Z,42.805,6.029,13.3012,4.60024,2470.544,2021-10-11T10:56:04Z
2021-10-11T08:57:44Z,42.805,6.029,13.3008,4.60024,2470.53,2021-10-11T10:59:07Z
2021-10-11T09:00:47Z,42.805,6.029,13.3009,4.60021,2470.52,2021-10-11T11:02:10Z
2021-10-11T09:03:50Z,42.805,6.029,13.3010,4.60023,2470.497,2021-10-11T11:05:13Z
2021-10-11T09:06:53Z,42.805,6.029,13.3006,4.60020,2470.52,2021-10-11T11:08:16Z
2021-10-11T09:09:56Z,42.805,6.029,13.3009,4.60021,2470.53,2021-10-11T11:11:19Z
2021-10-11T09:12:59Z,42.805,6.029,13.3007,4.60024,2470.567,2021-10-11T11:14:22Z
2021-10-11T09:16:02Z,42.805,6.029,13.3011,4.60019,2470.52,2021-10-11T11:17:26Z
2021-10-11T09:19:06Z,42.805,6.029,13.3009,4.60019,2470.52,2021-10-11T11:20:29Z
2021-10-11T09:22:09Z,42.805,6.029,13.3013,4.60022,2470.53,2021-10-11T11:23:32Z
2021-10-11T09:25:12Z,42.805,6.029,13.3008,4.60019,2470.534,2021-10-11T11:26:35Z
2021-10-11T09:28:15Z,42.805,6.029,13.3003,4.60022,2470.553,2021-10-11T11:29:38Z
2021-10-11T09:31:18Z,42.805,6.029,13.3009,4.60024,2470.544,2021-10-11T11:32:41Z
2021-10-11T09:34:21Z,42.805,6.029,13.3011,4.60019,2470.544,2021-10-11T11:35:44Z
2021-10-11T09:37:24Z,42.805,6.029,13.3014,4.60023,2470.507,2021-10-11T11:38:47Z
2021-10-11T09:40:27Z,42.805,6.029,13.3012,4.60019,2470.544,2021-10-11T11:41:51Z
2021-10-11T09:43:31Z,42.805,6.029,13.3009,4.60022,2470.591,2021-10-11T11:44:54Z
2021-10-11T09:46:34Z,42.805,6.029,13.3006,4.60019,2470.544,2021-10-11T11:47:57Z
2021-10-11T09:49:37Z,42.805,6.029,13.3007,4.60024,2470.544,2021-10-11T11:51:00Z
2021-10-11T09:52:40Z,42.805,6.029,13.3008,4.60024,2470.553,2021-10-11T11:54:03Z
2021-10-11T09:55:43Z,42.805,6.029,13.3013,4.60020,2470.577,2021-10-11T11:57:06Z
2021-10-11T09:58:46Z,42.805,6.029,13.3004,4.60020,2470.544,2021-10-11T12:00:09Z
2021-10-11T10:01:49Z,42.805,6.029,13.3009,4.60019,2470.544,2021-10-11T12:03:12Z
2021-10-11T10:04:52Z,42.805,6.029,13.3006,4.60019,2470.577,2021-10-11T12:06:16Z
2021-10-11T10:07:56Z,42.805,6.029,13.3007,4.60029,2470.6,2021-10-11T12:09:19Z
2021-10-11T10:10:59Z,42.805,6.029,13.3010,4.60026,2470.553,2021-10-11T12:12:22Z
2021-10-11T10:14:02Z,42.805,6.029,13.3006,4.60022,2470.553,2021-10-11T12:15:25Z
2021-10-11T10:17:05Z,42.805,6.029,13.3012,4.60025,2470.544,2021-10-11T12:18:28Z
2021-10-11T10:20:08Z,42.805,6.029,13.3016,4.60026,2470.53,2021-10-11T12:21:31Z
2021-10-11T10:23:11Z,42.805,6.029,13.3010,4.60028,2470.553,2021-10-11T12:24:34Z
2021-10-11T10:26:14Z,42.805,6.029,13.3011,4.60031,2470.544,2021-10-11T12:27:38Z
2021-10-11T10:29:17Z,42.805,6.029,13.3014,4.60025,2470.567,2021-10-11T12:30:41Z
2021-10-11T10:32:21Z,42.805,6.029,13.3009,4.60022,2470.591,2021-10-11T12:33:44Z
2021-10-11T10:35:24Z,42.805,6.029,13.3009,4.60021,2470.567,2021-10-11T12:36:47Z
2021-10-11T10:38:27Z,42.805,6.029,13.3015,4.60021,2470.6,2021-10-11T12:39:50Z
2021-10-11T10:41:30Z,42.805,6.029,13.3009,4.60025,2470.577,2021-10-11T12:42:53Z
2021-10-11T10:44:33Z,42.805,6.029,13.3004,4.60021,2470.567,2021-10-11T12:45:56Z
2021-10-11T10:47:36Z,42.805,6.029,13.3007,4.60036,2470.577,2021-10-11T12:48:59Z
2021-10-11T10:50:39Z,42.805,6.029,13.3015,4.60023,2470.544,2021-10-11T12:52:03Z
2021-10-11T10:53:42Z,42.805,6.029,13.3024,4.60029,2470.567,2021-10-11T12:55:06Z
2021-10-11T10:56:46Z,42.805,6.029,13.3024,4.60028,2470.553,2021-10-11T12:58:09Z
2021-10-11T10:59:49Z,42.805,6.029,13.3018,4.60027,2470.544,2021-10-11T13:01:12Z
2021-10-11T11:02:52Z,42.805,6.029,13.3012,4.60023,2470.53,2021-10-11T13:04:15Z
2021-10-11T11:05:55Z,42.805,6.029,13.3013,4.60026,2470.53,2021-10-11T13:07:18Z
2021-10-11T11:08:58Z,42.805,6.029,13.3019,4.60031,2470.544,2021-10-11T13:10:21Z
2021-10-11T11:12:01Z,42.805,6.029,13.3004,4.60025,2470.53,2021-10-11T13:13:24Z
2021-10-11T11:15:04Z,42.805,6.029,13.3012,4.60025,2470.544,2021-10-11T13:16:28Z
2021-10-11T11:18:07Z,42.805,6.029,13.3011,4.60026,2470.53,2021-10-11T13:19:31Z
2021-10-11T11:21:11Z,42.805,6.029,13.3021,4.60022,2470.553,2021-10-11T13:22:34Z
2021-10-11T11:24:14Z,42.805,6.029,13.3017,4.60026,2470.507,2021-10-11T13:25:37Z
2021-10-11T11:27:17Z,42.805,6.029,13.3008,4.60022,2470.553,2021-10-11T13:28:40Z
2021-10-11T11:30:20Z,42.805,6.029,13.3013,4.60022,2470.544,2021-10-11T13:31:43Z
2021-10-11T11:33:23Z,42.805,6.029,13.3004,4.60023,2470.544,2021-10-11T13:34:46Z
2021-10-11T11:36:26Z,42.805,6.029,13.3009,4.60026,2470.53,2021-10-11T13:37:50Z
2021-10-11T11:39:29Z,42.805,6.029,13.3012,4.60029,2470.53,2021-10-11T13:40:53Z
2021-10-11T11:42:33Z,42.805,6.029,13.3011,4.60028,2470.52,2021-10-11T13:43:56Z
2021-10-11T11:45:36Z,42.805,6.029,13.3009,4.60032,2470.544,2021-10-11T13:46:59Z
2021-10-11T11:48:39Z,42.805,6.029,13.3004,4.60026,2470.553,2021-10-11T13:50:02Z
2021-10-11T11:51:42Z,42.805,6.029,13.3010,4.60026,2470.544,2021-10-11T13:53:05Z
2021-10-11T11:54:45Z,42.805,6.029,13.3011,4.60024,2470.507,2021-10-11T13:56:08Z
2021-10-11T11:57:48Z,42.805,6.029,13.3017,4.60029,2470.567,2021-10-11T13:59:11Z
2021-10-11T12:00:51Z,42.805,6.029,13.3014,4.60038,2470.53,2021-10-11T14:02:15Z
2021-10-11T12:03:54Z,42.805,6.029,13.3007,4.60023,2470.483,2021-10-11T14:05:18Z
2021-10-11T12:06:58Z,42.805,6.029,13.3011,4.60021,2470.53,2021-10-11T14:08:21Z
2021-10-11T12:10:01Z,42.805,6.029,13.3014,4.60024,2470.507,2021-10-11T14:11:24Z
2021-10-11T12:13:04Z,42.805,6.029,13.3009,4.60023,2470.507,2021-10-11T14:14:27Z
2021-10-11T12:16:07Z,42.805,6.029,13.3007,4.60022,2470.53,2021-10-11T14:17:30Z
2021-10-11T12:19:10Z,42.805,6.029,13.3014,4.60019,2470.53,2021-10-11T14:20:33Z
2021-10-11T12:22:13Z,42.805,6.029,13.3014,4.60025,2470.52,2021-10-11T14:23:36Z
2021-10-11T12:25:16Z,42.805,6.029,13.3010,4.60028,2470.507,2021-10-11T14:26:40Z
2021-10-11T12:28:19Z,42.805,6.029,13.3011,4.60033,2470.52,2021-10-11T14:29:43Z
2021-10-11T12:31:23Z,42.805,6.029,13.3012,4.60042,2470.497,2021-10-11T14:32:46Z
2021-10-11T12:34:26Z,42.805,6.029,13.3014,4.60024,2470.52,2021-10-11T14:35:49Z
2021-10-11T12:37:29Z,42.805,6.029,13.3007,4.60039,2470.507,2021-10-11T14:38:52Z
2021-10-11T12:40:32Z,42.805,6.029,13.3014,4.60029,2470.497,2021-10-11T14:41:55Z
2021-10-11T12:43:35Z,42.805,6.029,13.3010,4.60024,2470.544,2021-10-11T14:44:58Z
2021-10-11T12:46:38Z,42.805,6.029,13.3012,4.60028,2470.507,2021-10-11T14:48:02Z
2021-10-11T12:49:41Z,42.805,6.029,13.3014,4.60020,2470.52,2021-10-11T14:51:05Z
2021-10-11T12:52:44Z,42.805,6.029,13.3014,4.60029,2470.507,2021-10-11T14:54:08Z
2021-10-11T12:55:48Z,42.805,6.029,13.3015,4.60033,2470.497,2021-10-11T14:57:11Z
2021-10-11T12:58:51Z,42.805,6.029,13.3014,4.60029,2470.46,2021-10-11T15:00:14Z
2021-10-11T13:01:54Z,42.805,6.029,13.3008,4.60034,2470.483,2021-10-11T15:03:17Z
2021-10-11T13:04:57Z,42.805,6.029,13.3011,4.60034,2470.544,2021-10-11T15:06:20Z
2021-10-11T13:08:00Z,42.805,6.029,13.3015,4.60033,2470.52,2021-10-11T15:09:23Z
2021-10-11T13:11:03Z,42.805,6.029,13.3013,4.60022,2470.497,2021-10-11T15:12:27Z
2021-10-11T13:14:06Z,42.805,6.029,13.3008,4.60023,2470.497,2021-10-11T15:15:30Z
2021-10-11T13:17:09Z,42.805,6.029,13.3005,4.60025,2470.53,2021-10-11T15:18:33Z
2021-10-11T13:20:13Z,42.805,6.029,13.3010,4.60030,2470.52,2021-10-11T15:21:36Z
2021-10-11T13:23:16Z,42.805,6.029,13.3011,4.60026,2470.497,2021-10-11T15:24:39Z
2021-10-11T13:26:19Z,42.805,6.029,13.3015,4.60028,2470.507,2021-10-11T15:27:42Z
2021-10-11T13:29:22Z,42.805,6.029,13.3020,4.60046,2470.483,2021-10-11T15:30:45Z
2021-10-11T13:32:25Z,42.805,6.029,13.3014,4.60026,2470.507,2021-10-11T15:33:48Z
2021-10-11T13:35:28Z,42.805,6.029,13.3007,4.60027,2470.46,2021-10-11T15:36:52Z
2021-10-11T13:38:31Z,42.805,6.029,13.3019,4.60025,2470.497,2021-10-11T15:39:55Z
2021-10-11T13:41:35Z,42.805,6.029,13.3011,4.60023,2470.52,2021-10-11T15:42:58Z
2021-10-11T13:44:38Z,42.805,6.029,13.3011,4.60024,2470.507,2021-10-11T15:46:01Z
2021-10-11T13:47:41Z,42.805,6.029,13.3012,4.60031,2470.507,2021-10-11T15:49:04Z
2021-10-11T13:50:44Z,42.805,6.029,13.3015,4.60032,2470.483,2021-10-11T15:52:07Z
2021-10-11T13:53:47Z,42.805,6.029,13.3026,4.60044,2470.474,2021-10-11T15:55:10Z
2021-10-11T13:56:50Z,42.805,6.029,13.3019,4.60038,2470.46,2021-10-11T15:58:13Z
2021-10-11T13:59:53Z,42.805,6.029,13.3016,4.60031,2470.507,2021-10-11T16:01:17Z
2021-10-11T14:02:57Z,42.805,6.029,13.3020,4.60033,2470.474,2021-10-11T16:04:20Z
2021-10-11T14:06:00Z,42.805,6.029,13.3013,4.60026,2470.483,2021-10-11T16:07:23Z
2021-10-11T14:09:03Z,42.805,6.029,13.3019,4.60031,2470.483,2021-10-11T16:10:26Z
2021-10-11T14:12:06Z,42.805,6.029,13.3017,4.60036,2470.483,2021-10-11T16:13:29Z
2021-10-11T14:15:09Z,42.805,6.029,13.3020,4.60027,2470.474,2021-10-11T16:16:32Z
2021-10-11T14:18:12Z,42.805,6.029,13.3012,4.60027,2470.46,2021-10-11T16:19:35Z
2021-10-11T14:21:15Z,42.805,6.029,13.3021,4.60034,2470.474,2021-10-11T16:22:39Z
2021-10-11T14:24:18Z,42.805,6.029,13.3034,4.60035,2470.474,2021-10-11T16:25:42Z
2021-10-11T14:27:22Z,42.805,6.029,13.3019,4.60031,2470.45,2021-10-11T16:28:45Z
2021-10-11T14:30:25Z,42.805,6.029,13.3014,4.60033,2470.497,2021-10-11T16:31:48Z
2021-10-11T14:33:28Z,42.805,6.029,13.3017,4.60030,2470.437,2021-10-11T16:34:51Z
2021-10-11T14:36:31Z,42.805,6.029,13.3021,4.60051,2470.46,2021-10-11T16:37:54Z
2021-10-11T14:39:34Z,42.805,6.029,13.3017,4.60039,2470.46,2021-10-11T16:40:57Z
2021-10-11T14:42:37Z,42.805,6.029,13.3018,4.60039,2470.46,2021-10-11T16:44:00Z
2021-10-11T14:45:40Z,42.805,6.029,13.3044,4.60033,2470.474,2021-10-11T16:47:04Z
2021-10-11T14:48:44Z,42.805,6.029,13.3023,4.60033,2470.437,2021-10-11T16:50:07Z
2021-10-11T14:51:47Z,42.805,6.029,13.3021,4.60060,2470.437,2021-10-11T16:53:10Z
2021-10-11T14:54:50Z,42.805,6.029,13.3028,4.60034,2470.437,2021-10-11T16:56:13Z
2021-10-11T14:57:53Z,42.805,6.029,13.3027,4.60031,2470.437,2021-10-11T16:59:16Z
2021-10-11T15:00:56Z,42.805,6.029,13.3020,4.60033,2470.437,2021-10-11T17:02:19Z